Simultaneous Nadir Overpasses (SNOs) Predictions

Prediction of SNOs between AQUA and NPP Satellite Orbit:

Table of predicted SNOs for the next 14.0 days since TLE Epoch: 10/24/2020
Index Date (AQUA) Time (AQUA) Lat,Lon (AQUA) SZA (AQUA ) Date (NPP) Time (NPP) Lat,Lon (NPP) SZA (NPP ) Distance(km) Time Diff (sec)
1 10/26/2020 05:33:19 72.23, -32.89 112.45 10/26/2020 05:32:05 72.31, -33.21 112.57 14.28 74
2 10/26/2020 06:21:34 -75.98, 143.51 71.34 10/26/2020 06:21:36 -75.97, 143.45 71.32 2.06 2
3 10/26/2020 07:06:40 80.82, 34.74 94.98 10/26/2020 07:07:53 80.17, 32.69 94.61 81.06 73
4 10/28/2020 21:48:48 75.36, 89.96 110.17 10/28/2020 21:47:57 75.37, 89.98 110.21 0.47 51
5 10/28/2020 22:37:56 -76.33, -99.49 70.85 10/28/2020 22:38:22 -76.33, -99.54 70.86 1.57 26
6 10/31/2020 14:05:08 75.82,-152.86 110.53 10/31/2020 14:04:41 75.82,-152.82 110.55 1.19 27
7 10/31/2020 14:54:17 -76.72, 17.70 70.43 10/31/2020 14:55:07 -76.72, 17.69 70.47 0.30 50
8 11/03/2020 05:36:50 -60.52, 134.35 54.63 11/03/2020 05:35:37 -60.72, 133.11 54.15 70.79 73
9 11/03/2020 06:21:28 76.26, -35.62 110.89 11/03/2020 06:21:25 76.27, -35.53 110.87 2.69 3
10 11/03/2020 07:10:25 -77.69, 137.32 70.69 11/03/2020 07:11:39 -77.65, 137.46 70.78 5.15 74
11 11/05/2020 21:48:53 -75.14, -90.66 67.16 11/05/2020 21:47:58 -75.13, -90.72 67.09 1.86 55
